Time,TemperatureF,DewpointF,PressureIn,WindDirection,WindDirectionDegrees,WindSpeedMPH,WindSpeedGustMPH,Humidity,HourlyPrecipIn,Conditions,Clouds,dailyrainin,SoftwareType,DateUTC
2013-03-22 13:34:00,40.6,0.5,27.70,WSW,247,5.8,5.8,18,0.00,,---,0.00,VWS V14.01,2013-03-22 20:34:00,
2013-03-22 13:39:00,39.2,-0.7,27.70,NW,324,3.1,4.0,18,0.00,,---,0.00,VWS V14.01,2013-03-22 20:39:00,
2013-03-22 13:44:00,39.4,-0.6,27.70,South,175,5.4,5.4,18,0.00,,---,0.00,VWS V14.01,2013-03-22 20:44:00,
2013-03-22 13:49:00,41.0,0.8,27.70,SSE,168,4.9,6.3,18,0.00,,---,0.00,VWS V14.01,2013-03-22 20:49:00,
2013-03-22 13:54:00,41.5,1.2,27.70,SSE,158,3.1,3.6,18,0.00,,---,0.00,VWS V14.01,2013-03-22 20:54:00,
2013-03-22 13:59:00,42.4,1.9,27.70,South,177,5.8,5.8,18,0.00,,---,0.00,VWS V14.01,2013-03-22 20:59:00,
2013-03-22 14:04:00,43.0,2.4,27.70,South,180,2.2,3.1,18,0.00,,---,0.00,VWS V14.01,2013-03-22 21:04:00,
2013-03-22 14:09:00,43.2,2.5,27.70,SSW,199,5.8,5.8,18,0.00,,---,0.00,VWS V14.01,2013-03-22 21:09:00,
2013-03-22 14:14:00,43.7,3.0,27.70,SSW,196,3.1,4.9,18,0.00,,---,0.00,VWS V14.01,2013-03-22 21:14:00,
2013-03-22 14:19:00,44.4,3.6,27.70,West,275,5.8,5.8,18,0.00,,---,0.00,VWS V14.01,2013-03-22 21:19:00,
2013-03-22 14:24:00,44.2,3.4,27.70,WNW,283,8.1,8.1,18,0.00,,---,0.00,VWS V14.01,2013-03-22 21:24:00,
2013-03-22 14:29:00,44.4,3.6,27.70,SW,223,4.9,5.8,18,0.00,,---,0.00,VWS V14.01,2013-03-22 21:29:00,
2013-03-22 14:34:00,45.0,2.8,27.70,WSW,250,10.1,10.1,17,0.00,,---,0.00,VWS V14.01,2013-03-22 21:34:00,
2013-03-22 14:39:00,42.4,1.9,27.70,West,276,4.0,6.3,18,0.00,,---,0.00,VWS V14.01,2013-03-22 21:39:00,
2013-03-22 14:44:00,41.5,1.2,27.70,WSW,247,4.0,4.0,18,0.00,,---,0.00,VWS V14.01,2013-03-22 21:44:00,
2013-03-22 14:49:00,42.3,1.8,27.70,SE,144,3.6,6.3,18,0.00,,---,0.00,VWS V14.01,2013-03-22 21:49:00,
2013-03-22 14:54:00,43.5,2.8,27.70,South,191,5.8,8.1,18,0.00,,---,0.00,VWS V14.01,2013-03-22 21:54:00,
2013-03-22 14:59:00,43.3,2.7,27.70,South,171,7.6,7.6,18,0.00,,---,0.00,VWS V14.01,2013-03-22 21:59:00,
2013-03-22 15:04:00,43.3,2.7,27.70,South,178,6.7,6.7,18,0.00,,---,0.00,VWS V14.01,2013-03-22 22:04:00,
2013-03-22 15:09:00,43.3,2.7,27.70,South,189,5.4,8.1,18,0.00,,---,0.00,VWS V14.01,2013-03-22 22:09:00,
2013-03-22 15:14:00,43.5,2.8,27.70,SSW,192,3.6,5.4,18,0.00,,---,0.00,VWS V14.01,2013-03-22 22:14:00,
2013-03-22 15:19:00,43.7,3.0,27.70,SSE,147,4.0,4.0,18,0.00,,---,0.00,VWS V14.01,2013-03-22 22:19:00,
2013-03-22 15:24:00,44.6,2.5,27.70,SSE,159,0.0,0.0,17,0.00,,---,0.00,VWS V14.01,2013-03-22 22:24:00,
2013-03-22 15:29:00,45.3,3.1,27.70,SW,233,2.2,4.0,17,0.00,,---,0.00,VWS V14.01,2013-03-22 22:29:00,
2013-03-22 15:34:00,44.8,2.6,27.70,SSE,153,4.9,4.9,17,0.00,,---,0.00,VWS V14.01,2013-03-22 22:34:00,
2013-03-22 15:39:00,44.8,2.6,27.70,SSE,168,4.5,5.8,17,0.00,,---,0.00,VWS V14.01,2013-03-22 22:39:00,
2013-03-22 15:44:00,45.3,3.1,27.70,SSE,155,3.6,8.1,17,0.00,,---,0.00,VWS V14.01,2013-03-22 22:44:00,
2013-03-22 15:49:00,43.5,2.8,27.70,South,174,4.0,4.0,18,0.00,,---,0.00,VWS V14.01,2013-03-22 22:49:00,
2013-03-22 15:54:00,42.4,1.9,27.70,SSE,150,6.3,8.1,18,0.00,,---,0.00,VWS V14.01,2013-03-22 22:54:00,
2013-03-22 15:59:00,41.2,0.9,27.70,West,263,6.7,8.1,18,0.00,,---,0.00,VWS V14.01,2013-03-22 22:59:00,
2013-03-22 16:04:00,40.6,0.5,27.70,SSW,209,6.3,6.3,18,0.00,,---,0.00,VWS V14.01,2013-03-22 23:04:00,
2013-03-22 16:09:00,39.7,-0.3,27.70,SE,127,0.0,0.0,18,0.00,,---,0.00,VWS V14.01,2013-03-22 23:09:00,
2013-03-22 16:14:00,38.8,0.1,27.70,West,279,8.3,8.3,19,0.00,,---,0.00,VWS V14.01,2013-03-22 23:14:00,
2013-03-22 16:19:00,38.1,-0.5,27.70,West,272,10.5,10.5,19,0.00,,---,0.00,VWS V14.01,2013-03-22 23:19:00,
2013-03-22 16:24:00,37.4,-1.1,27.70,West,275,8.1,8.1,19,0.00,,---,0.00,VWS V14.01,2013-03-22 23:24:00,
2013-03-22 16:29:00,37.2,-1.2,27.70,West,266,5.8,8.1,19,0.00,,---,0.00,VWS V14.01,2013-03-22 23:29:00,
2013-03-22 16:34:00,36.9,-1.5,27.73,South,177,6.3,6.3,19,0.00,,---,0.00,VWS V14.01,2013-03-22 23:34:00,
2013-03-22 16:39:00,36.3,-2.0,27.73,South,180,4.9,4.9,19,0.00,,---,0.00,VWS V14.01,2013-03-22 23:39:00,
2013-03-22 16:44:00,36.0,-2.3,27.73,SSW,210,5.8,5.8,19,0.00,,---,0.00,VWS V14.01,2013-03-22 23:44:00,
2013-03-22 16:49:00,36.0,-2.3,27.73,SSE,157,4.0,4.0,19,0.00,,---,0.00,VWS V14.01,2013-03-22 23:49:00,
2013-03-22 16:54:00,36.1,-2.1,27.73,SSE,162,3.6,4.0,19,0.00,,---,0.00,VWS V14.01,2013-03-22 23:54:00,
2013-03-22 16:59:00,36.3,-2.0,27.73,SE,143,3.6,3.6,19,0.00,,---,0.00,VWS V14.01,2013-03-22 23:59:00,
2013-03-22 17:04:00,37.2,-1.2,27.73,South,181,3.6,3.6,19,0.00,,---,0.00,VWS V14.01,2013-03-23 00:04:00,
2013-03-22 17:09:00,38.5,-0.2,27.73,SSE,152,3.1,3.1,19,0.00,,---,0.00,VWS V14.01,2013-03-23 00:09:00,
2013-03-22 17:14:00,39.7,-0.3,27.73,South,176,2.7,3.1,18,0.00,,---,0.00,VWS V14.01,2013-03-23 00:14:00,
2013-03-22 17:19:00,40.3,0.2,27.73,SSE,149,0.0,2.7,18,0.00,,---,0.00,VWS V14.01,2013-03-23 00:19:00,
2013-03-22 17:24:00,41.0,0.8,27.73,SSE,152,0.0,0.0,18,0.00,,---,0.00,VWS V14.01,2013-03-23 00:24:00,
2013-03-22 17:29:00,41.2,0.9,27.73,ENE,67,2.2,2.7,18,0.00,,---,0.00,VWS V14.01,2013-03-23 00:29:00,
2013-03-22 17:34:00,41.2,0.9,27.73,East,88,0.0,0.0,18,0.00,,---,0.00,VWS V14.01,2013-03-23 00:34:00,
2013-03-22 17:39:00,40.6,0.5,27.73,ENE,57,0.0,0.0,18,0.00,,---,0.00,VWS V14.01,2013-03-23 00:39:00,
2013-03-22 17:44:00,40.5,0.3,27.73,NE,51,0.0,0.0,18,0.00,,---,0.00,VWS V14.01,2013-03-23 00:44:00,
2013-03-22 17:49:00,39.4,-0.6,27.73,NE,51,0.0,0.0,18,0.00,,---,0.00,VWS V14.01,2013-03-23 00:49:00,
2013-03-22 17:54:00,38.7,0.0,27.73,ESE,122,0.0,0.0,19,0.00,,---,0.00,VWS V14.01,2013-03-23 00:54:00,
2013-03-22 17:59:00,38.1,-0.5,27.73,ESE,112,0.0,0.0,19,0.00,,---,0.00,VWS V14.01,2013-03-23 00:59:00,
2013-03-22 18:04:00,37.8,-0.8,27.73,ENE,69,0.0,0.0,19,0.00,,---,0.00,VWS V14.01,2013-03-23 01:04:00,
2013-03-22 18:09:00,37.6,-0.9,27.73,NE,50,0.0,0.0,19,0.00,,---,0.00,VWS V14.01,2013-03-23 01:09:00,
2013-03-22 18:14:00,37.4,-1.1,27.73,NE,50,2.2,3.1,19,0.00,,---,0.00,VWS V14.01,2013-03-23 01:14:00,
2013-03-22 18:19:00,37.4,-1.1,27.73,NE,37,0.0,0.0,19,0.00,,---,0.00,VWS V14.01,2013-03-23 01:19:00,
2013-03-22 18:24:00,37.6,-0.9,27.73,NNE,25,0.0,0.0,19,0.00,,---,0.00,VWS V14.01,2013-03-23 01:24:00,
2013-03-22 18:29:00,37.8,-0.8,27.73,ENE,63,2.7,3.1,19,0.00,,---,0.00,VWS V14.01,2013-03-23 01:29:00,
2013-03-22 18:34:00,37.8,-0.8,27.73,ESE,110,0.0,0.0,19,0.00,,---,0.00,VWS V14.01,2013-03-23 01:34:00,
2013-03-22 18:39:00,37.8,-0.8,27.73,ESE,110,0.0,0.0,19,0.00,,---,0.00,VWS V14.01,2013-03-23 01:39:00,
2013-03-22 18:44:00,37.8,-0.8,27.73,North,353,0.0,0.0,19,0.00,,---,0.00,VWS V14.01,2013-03-23 01:44:00,
2013-03-22 18:49:00,37.8,-0.8,27.76,NW,319,7.6,8.1,19,0.00,,---,0.00,VWS V14.01,2013-03-23 01:49:00,
2013-03-22 18:54:00,37.4,-1.1,27.76,NNW,338,6.7,6.7,19,0.00,,---,0.00,VWS V14.01,2013-03-23 01:54:00,
2013-03-22 18:59:00,36.9,-1.5,27.76,NNW,344,8.1,8.1,19,0.00,,---,0.00,VWS V14.01,2013-03-23 01:59:00,
2013-03-22 19:04:00,36.3,-2.0,27.76,North,3,6.3,6.3,19,0.00,,---,0.00,VWS V14.01,2013-03-23 02:04:00,
2013-03-22 19:09:00,36.0,-2.3,27.76,NNE,18,3.6,4.9,19,0.00,,---,0.00,VWS V14.01,2013-03-23 02:09:00,
2013-03-22 19:14:00,36.0,-2.3,27.76,North,357,0.0,0.0,19,0.00,,---,0.00,VWS V14.01,2013-03-23 02:14:00,
2013-03-22 19:19:00,36.0,-2.3,27.76,North,357,0.0,0.0,19,0.00,,---,0.00,VWS V14.01,2013-03-23 02:19:00,
2013-03-22 19:24:00,36.0,-2.3,27.76,SSE,165,0.0,0.0,19,0.00,,---,0.00,VWS V14.01,2013-03-23 02:24:00,
2013-03-22 19:29:00,35.8,-2.4,27.76,SSW,194,3.6,4.0,19,0.00,,---,0.00,VWS V14.01,2013-03-23 02:29:00,
2013-03-22 19:34:00,35.6,-2.6,27.76,South,173,3.6,3.6,19,0.00,,---,0.00,VWS V14.01,2013-03-23 02:34:00,
2013-03-22 19:39:00,35.4,-1.6,27.76,SSE,150,3.6,4.0,20,0.00,,---,0.00,VWS V14.01,2013-03-23 02:39:00,
2013-03-22 19:44:00,35.1,-2.0,27.76,SSE,168,2.2,3.1,20,0.00,,---,0.00,VWS V14.01,2013-03-23 02:44:00,
2013-03-22 19:49:00,35.1,-2.0,27.76,SSE,163,0.0,0.0,20,0.00,,---,0.00,VWS V14.01,2013-03-23 02:49:00,
2013-03-22 19:54:00,35.1,-2.0,27.76,South,175,4.0,5.8,20,0.00,,---,0.00,VWS V14.01,2013-03-23 02:54:00,
2013-03-22 19:59:00,35.1,-2.0,27.76,SSE,154,4.9,4.9,20,0.00,,---,0.00,VWS V14.01,2013-03-23 02:59:00,
2013-03-22 20:04:00,34.9,-2.1,27.76,SE,136,0.0,0.0,20,0.00,,---,0.00,VWS V14.01,2013-03-23 03:04:00,
2013-03-22 20:09:00,34.5,-2.4,27.76,East,83,0.0,0.0,20,0.00,,---,0.00,VWS V14.01,2013-03-23 03:09:00,
2013-03-22 20:14:00,34.5,-2.4,27.76,SSE,158,0.0,0.0,20,0.00,,---,0.00,VWS V14.01,2013-03-23 03:14:00,
2013-03-22 20:19:00,34.3,-2.6,27.76,SSE,158,0.0,0.0,20,0.00,,---,0.00,VWS V14.01,2013-03-23 03:19:00,
2013-03-22 20:24:00,34.0,-2.9,27.76,SE,140,0.0,0.0,20,0.00,,---,0.00,VWS V14.01,2013-03-23 03:24:00,
2013-03-22 20:29:00,34.0,-2.9,27.76,SE,140,0.0,0.0,20,0.00,,---,0.00,VWS V14.01,2013-03-23 03:29:00,
2013-03-22 20:34:00,33.8,-3.0,27.76,SE,141,0.0,0.0,20,0.00,,---,0.00,VWS V14.01,2013-03-23 03:34:00,
2013-03-22 20:39:00,33.6,-3.2,27.76,SE,144,0.0,0.0,20,0.00,,---,0.00,VWS V14.01,2013-03-23 03:39:00,
2013-03-22 20:44:00,33.3,-3.5,27.76,SSE,154,0.0,0.0,20,0.00,,---,0.00,VWS V14.01,2013-03-23 03:44:00,
2013-03-22 20:49:00,33.1,-0.7,27.76,SSE,160,2.7,5.8,23,0.00,,---,0.00,VWS V14.01,2013-03-23 03:49:00,
2013-03-22 20:54:00,32.9,-0.8,27.76,South,184,5.8,5.8,23,0.00,,---,0.00,VWS V14.01,2013-03-23 03:54:00,
2013-03-22 20:59:00,32.7,-1.0,27.76,South,172,3.6,3.6,23,0.00,,---,0.00,VWS V14.01,2013-03-23 03:59:00,
2013-03-22 21:00:00,32.7,-1.0,27.76,South,169,4.5,6.3,23,0.00,,---,0.00,VWS V14.01,2013-03-23 04:00:00,
2013-03-22 21:05:00,32.7,-1.0,27.79,SSE,165,2.7,4.9,23,0.00,,---,0.00,VWS V14.01,2013-03-23 04:05:00,
2013-03-22 21:10:00,32.5,-1.1,27.79,SE,142,5.4,5.4,23,0.00,,---,0.00,VWS V14.01,2013-03-23 04:10:00,
2013-03-22 21:15:00,32.5,-1.1,27.79,SSE,163,3.6,4.9,23,0.00,,---,0.00,VWS V14.01,2013-03-23 04:15:00,
2013-03-22 21:20:00,32.4,-1.3,27.79,South,182,8.1,8.1,23,0.00,,---,0.00,VWS V14.01,2013-03-23 04:20:00,
2013-03-22 21:25:00,32.2,-1.4,27.79,South,170,2.2,3.6,23,0.00,,---,0.00,VWS V14.01,2013-03-23 04:25:00,
2013-03-22 21:30:00,32.2,-1.4,27.79,South,172,2.7,3.6,23,0.00,,---,0.00,VWS V14.01,2013-03-23 04:30:00,
2013-03-22 21:35:00,32.2,-1.4,27.79,SSE,163,3.6,4.9,23,0.00,,---,0.00,VWS V14.01,2013-03-23 04:35:00,
2013-03-22 21:40:00,32.0,-1.6,27.79,SSW,192,4.0,4.0,23,0.00,,---,0.00,VWS V14.01,2013-03-23 04:40:00,
2013-03-22 21:45:00,32.0,-1.6,27.79,SSE,155,2.7,6.3,23,0.00,,---,0.00,VWS V14.01,2013-03-23 04:45:00,
2013-03-22 21:50:00,32.0,-1.6,27.79,South,179,4.0,4.0,23,0.00,,---,0.00,VWS V14.01,2013-03-23 04:50:00,
2013-03-22 21:55:00,32.0,-1.6,27.79,SSE,168,2.7,4.0,23,0.00,,---,0.00,VWS V14.01,2013-03-23 04:55:00,
2013-03-22 22:00:00,31.8,-1.8,27.79,SSE,164,3.1,3.1,23,0.00,,---,0.00,VWS V14.01,2013-03-23 05:00:00,
2013-03-22 22:05:00,31.8,-1.8,27.79,South,190,2.7,3.6,23,0.00,,---,0.00,VWS V14.01,2013-03-23 05:05:00,
2013-03-22 22:10:00,31.8,-1.8,27.79,South,180,3.1,4.0,23,0.00,,---,0.00,VWS V14.01,2013-03-23 05:10:00,
2013-03-22 22:15:00,31.6,-1.9,27.79,SSE,165,3.6,4.0,23,0.00,,---,0.00,VWS V14.01,2013-03-23 05:15:00,
2013-03-22 22:20:00,31.6,-1.9,27.79,SSE,168,3.6,4.0,23,0.00,,---,0.00,VWS V14.01,2013-03-23 05:20:00,
2013-03-22 22:25:00,31.6,-1.9,27.79,SSE,167,5.4,6.3,23,0.00,,---,0.00,VWS V14.01,2013-03-23 05:25:00,
2013-03-22 22:30:00,31.8,-1.8,27.79,SSE,160,6.3,7.6,23,0.00,,---,0.00,VWS V14.01,2013-03-23 05:30:00,
2013-03-22 22:35:00,31.6,-1.9,27.79,SSE,168,4.0,5.4,23,0.00,,---,0.00,VWS V14.01,2013-03-23 05:35:00,
2013-03-22 22:40:00,31.6,-1.9,27.79,SSE,157,6.3,6.3,23,0.00,,---,0.00,VWS V14.01,2013-03-23 05:40:00,
2013-03-22 22:45:00,31.5,-2.0,27.79,SSE,157,4.9,7.6,23,0.00,,---,0.00,VWS V14.01,2013-03-23 05:45:00,
2013-03-22 22:50:00,31.5,-2.0,27.82,South,174,2.7,3.6,23,0.00,,---,0.00,VWS V14.01,2013-03-23 05:50:00,
2013-03-22 22:55:00,31.3,-2.2,27.82,South,173,4.0,6.3,23,0.00,,---,0.00,VWS V14.01,2013-03-23 05:55:00,
2013-03-22 23:00:00,31.1,-2.4,27.82,South,176,8.1,8.3,23,0.00,,---,0.00,VWS V14.01,2013-03-23 06:00:00,
2013-03-22 23:05:00,31.1,-2.4,27.82,SSE,166,5.4,8.3,23,0.00,,---,0.00,VWS V14.01,2013-03-23 06:05:00,
2013-03-22 23:10:00,31.1,-2.4,27.82,SSE,168,4.0,4.0,23,0.00,,---,0.00,VWS V14.01,2013-03-23 06:10:00,
2013-03-22 23:15:00,30.9,-2.5,27.82,SSE,167,5.4,5.8,23,0.00,,---,0.00,VWS V14.01,2013-03-23 06:15:00,
2013-03-22 23:20:00,30.7,-2.7,27.82,South,170,4.9,4.9,23,0.00,,---,0.00,VWS V14.01,2013-03-23 06:20:00,
2013-03-22 23:25:00,30.7,-2.7,27.82,SSW,194,5.8,7.6,23,0.00,,---,0.00,VWS V14.01,2013-03-23 06:25:00,
2013-03-22 23:30:00,30.7,-2.7,27.82,SSW,196,2.7,4.0,23,0.00,,---,0.00,VWS V14.01,2013-03-23 06:30:00,
2013-03-22 23:35:00,30.4,-1.2,27.82,SSE,162,6.3,6.3,25,0.00,,---,0.00,VWS V14.01,2013-03-23 06:35:00,
2013-03-22 23:40:00,30.2,-1.4,27.82,South,179,4.9,4.9,25,0.00,,---,0.00,VWS V14.01,2013-03-23 06:40:00,
2013-03-22 23:45:00,30.2,-1.4,27.82,South,176,4.9,5.4,25,0.00,,---,0.00,VWS V14.01,2013-03-23 06:45:00,
2013-03-22 23:50:00,30.0,0.9,27.82,South,179,3.6,3.6,28,0.00,,---,0.00,VWS V14.01,2013-03-23 06:50:00,
2013-03-22 23:55:00,29.8,0.7,27.82,SSE,152,4.9,5.8,28,0.00,,---,0.00,VWS V14.01,2013-03-23 06:55:00,